Location: Devore Heights
(34.2372°N, 117.4156°W)
Time: 23:01:31
(UTC+00:00)

Transit 4A - Pass Details

Date: 16 September 2024
Orbit: 864 x 978 km, 66.8° (Epoch: 13 October)

Event Time Altitude Azimuth Distance (km) Brightness Sun altitude
Rises 19:04:10 0° 339° (NNW) 3,612 10.6 56.6°
Reaches altitude 10° 19:06:47 10° 345° (NNW) 2,679 10.1 56.8°
Maximum altitude 19:12:51 49° 60° (ENE) 1,224 9.1 57.2°
Drops below altitude 10° 19:18:59 10° 134° (SE) 2,714 10.9 57.4°
Sets 19:21:39 0° 140° (SE) 3,662 11.4 57.5°
